Home   Weather   Rockford   Past weeks

Flag for USA Past Weather in Rockford, Illinois, USA — Yesterday and Last 2 Weeks

Now
62 °F

Partly sunny.


Feels Like: 62 °F
Forecast: 39 / 74 °F
Wind: 9 mph from South

Location: Greater Rockford Airport

Current Time: Apr 24, 2017 at 10:38:02 am

Latest Report: Apr 24, 2017 at 9:54 am


Visibility: 10 mi

Pressure: 30.01 "Hg

Humidity: 46%

Dew Point: 41 °F

Location of RockfordLocation

Past Weather in Rockford — Graph

°F

Rockford Temperature Yesterday

Maximum temperature yesterday: 72 °F (at 2:54 pm)
Minimum temperature yesterday: 37 °F (at 4:54 am)
Average temperature yesterday: 56 °F

High & Low Weather Summary for the Past Weeks

 TemperatureHumidityPressure
High81 °F (Apr 15, 1:54 pm)93% (Apr 10, 3:54 pm)30.41 "Hg (Apr 10, 3:54 pm)
Low35 °F (Apr 12, 6:54 am)22% (Apr 16, 3:54 pm)29.60 "Hg (Apr 9, 4:54 pm)
Average57 °F64%30.06 "Hg
* Reported Apr 9 8:54 am — Apr 24 8:54 am, Rockford, Weather by CustomWeather, © 2017

Note: Actual official high and low records may vary slightly from our data, if they occured in-between our weather recording intervals... More about our weather records

Advertising

Rockford Weather History for the Previous 24 Hours

Scroll right to see more
 ConditionsComfort  
Time TempWeatherWind HumidityBarometerVisibility
8:54 am
Mon, Apr 24
54 °FPartly sunny.9 mph62%30.03 "Hg10 mi
7:54 am47 °FPartly sunny.5 mph71%30.04 "Hg10 mi
6:54 am43 °FScattered clouds.No wind79%30.03 "Hg10 mi
5:54 am42 °FPassing clouds.3 mph79%30.03 "Hg10 mi
4:54 am44 °FPassing clouds.5 mph73%30.01 "Hg10 mi
3:54 am45 °FPassing clouds.3 mph71%30.01 "Hg10 mi
2:54 am47 °FPassing clouds.5 mph69%30.01 "Hg10 mi
1:54 am47 °FPassing clouds.3 mph69%30.03 "Hg10 mi
12:54 am50 °FPassing clouds.3 mph59%30.05 "Hg10 mi
11:54 pm
Sun, Apr 23
51 °FPassing clouds.3 mph56%30.05 "Hg10 mi
10:54 pm56 °FPassing clouds.5 mph46%30.04 "Hg10 mi
9:54 pm57 °FPassing clouds.9 mph46%30.04 "Hg10 mi
8:54 pm59 °FPassing clouds.5 mph44%30.03 "Hg10 mi
7:54 pm65 °FPassing clouds.3 mph37%30.03 "Hg10 mi
6:54 pm70 °FPartly sunny.No wind23%30.03 "Hg10 mi
5:54 pm71 °FScattered clouds.3 mph27%30.03 "Hg10 mi
4:54 pm72 °FPassing clouds.No wind27%30.03 "Hg10 mi
3:54 pm72 °FPassing clouds.3 mph26%30.04 "Hg10 mi
2:54 pm72 °FPassing clouds.6 mph27%30.06 "Hg10 mi
1:54 pm70 °FPassing clouds.5 mph25%30.08 "Hg10 mi
12:54 pm70 °FPassing clouds.3 mph28%30.10 "Hg10 mi
11:54 am67 °FSunny.No wind29%30.12 "Hg10 mi
10:54 am65 °FSunny.5 mph29%30.15 "Hg10 mi
Weather by CustomWeather, © 2017

See weather overviewHow to use our weather pages